Location: Passau
(48.5830°N, 13.4830°E)
Time: 20:11:20
(UTC+02:00)

Vanguard 3 - Pass Details

Date: 18 May 2024
Orbit: 509 x 3231 km, 33.3° (Epoch: 15 June)

Event Time Altitude Azimuth Distance (km) Brightness Sun altitude
Rises 19:55:36 0° 210° (SSW) 4,488 11.0 6.4°
Reaches altitude 10° 19:58:46 10° 198° (SSW) 3,875 10.6 5.9°
Maximum altitude 20:07:23 28° 145° (SE) 3,540 10.0 4.6°
Drops below altitude 10° 20:19:47 10° 97° (E) 5,704 10.9 2.8°
Sets 20:25:46 0° 88° (E) 7,003 11.4 1.9°
